User: anonymous   Login
Location: Dodge City Co - Operative Exchange Grain Elevator Number 8
(38.1218°N, 99.7124°W)
Time: 15:44:48
(UTC+00:00)
Language:

CZ-4B R/B - Orbit

View from above orbital plane
View from above orbital plane
View from above satellite
View from above satellite

Ground track
Ground track

The orbit data is extracted from the following two-line orbital elements,

1 33410U 08053C   21131.89660524 -.00000285  00000-0 -15031-4 0  9996
2 33410  97.8908 127.8458 0117614  96.9802 264.4815 14.99498005683986
Epoch (UTC): 11 May 2021 21:31:06
Eccentricity: 0.0117614
inclination: 97.8908°
perigee height: 487 km
apogee height: 650 km
right ascension of ascending node: 127.8458°
argument of perigee: 96.9802°
revolutions per day: 14.99498005
mean anomaly at epoch: 264.4815°
orbit number at epoch: 68398

The dashed part of the orbit path shows where the satellite is in the earth's shadow,  

DLR